Главная страница
METAR-TAF:

METAR-TAF

Аэропорты :

Нефтяная платформа

F16-a, Нидерланды

широта: 54-07-00N, долгота: 4-00-44E, высота над уровнем моря: 28 м

Текущие метеонаблюдения

Эта сводка был подготовлена 18 минут назад, в 20:25 UTC
Ветер 20 Узел от юго-юго-восточный
Температура 12°C
Влажность 88%
Давление 1023 hPa
Видимость: 9000 м

METAR: EHFZ 152025Z AUTO 15020KT 9000 NCD 12/10 Q1023 W///H///

Время: 21:43 (20:43 UTC)


TAF: отсутствует

Метеонаблюдения и прогнозы для более 4000 аэропортов (сводки METAR и TAF).

Имеющиеся станции представлены на карте желтыми и красными точками.

Чтобы увидеть название станции, наведите на нее мышь.

Затем щелкните, чтобы увидеть метеонаблюдения и метеопрогнозы.

Управление картой: чтобы увеличить масштаб, щелкните зеленые кнопки с черным крестиком; чтобы уменьшить масштаб, щелкните зеленую кнопку с тире; для просмотра соседних карт щелкайте зеленые стрелки.


METAR-TAF: